| time (UTC) | temp F | wind direction | speed MPH | gust MPH | rain 1hr in | rain 24hr in | rain mn in | humidity % | barometer mb |
| 20260903043902 | 55 | 331 | 0.0 | 0.0 | 0.00 | 0.00 | 0.00 | 99 | 1020.0 |
| 20260903043402 | 55 | 331 | 0.0 | 0.0 | 0.00 | 0.00 | 0.00 | 99 | 1020.0 |
| 20260903042902 | 55 | 331 | 0.0 | 0.0 | 0.00 | 0.00 | 0.00 | 99 | 1020.0 |
| 20260903042402 | 56 | 331 | 0.0 | 0.0 | 0.00 | 0.00 | 0.00 | 99 | 1020.0 |
| 20260903041902 | 56 | 331 | 0.0 | 0.0 | 0.05 | 0.00 | 0.00 | 99 | 1020.0 |
| 20260903041402 | 56 | 331 | 0.0 | 0.0 | 0.05 | 0.00 | 0.00 | 99 | 1020.0 |
| 20260903040902 | 56 | 331 | 0.0 | 0.0 | 0.00 | 0.00 | 0.00 | 99 | 1020.0 |
| 20260903040402 | 56 | 324 | 0.0 | 0.0 | 0.00 | 0.00 | 0.00 | 99 | 1020.0 |
| 20260903035902 | 56 | 326 | 0.0 | 0.0 | 0.00 | 0.00 | 0.00 | 99 | 1020.0 |
| 20260903035402 | 56 | 325 | 0.0 | 0.0 | 0.00 | 0.00 | 0.00 | 99 | 1020.0 |
| 20260903034902 | 56 | 324 | 1.0 | 1.0 | 0.00 | 0.00 | 0.00 | 99 | 1020.0 |
| 20260903034402 | 56 | 334 | 0.0 | 0.0 | 0.00 | 0.00 | 0.00 | 99 | 1020.0 |
| 20260903033902 | 56 | 334 | 0.0 | 0.0 | 0.00 | 0.00 | 0.00 | 99 | 1020.0 |
| 20260903033402 | 56 | 334 | 0.0 | 1.0 | 0.00 | 0.00 | 0.00 | 99 | 1020.0 |
| 20260903032902 | 56 | 329 | 0.0 | 0.0 | 0.00 | 0.00 | 0.00 | 99 | 1020.0 |
| 20260903032402 | 56 | 323 | 0.0 | 1.0 | 0.00 | 0.00 | 0.00 | 99 | 1020.0 |
| 20260903031902 | 57 | 308 | 1.0 | 1.0 | 0.00 | 0.00 | 0.00 | 99 | 1020.0 |
| 20260903031402 | 57 | 336 | 0.0 | 0.0 | 0.00 | 0.00 | 0.00 | 99 | 1020.0 |
| 20260903030902 | 57 | 341 | 0.0 | 1.0 | 0.00 | 0.00 | 0.00 | 99 | 1020.0 |
| 20260903030402 | 57 | 341 | 1.0 | 1.0 | 0.00 | 0.00 | 0.00 | 99 | 1020.0 |
| 20260903025902 | 58 | 327 | 2.0 | 4.0 | 0.00 | 0.00 | 0.00 | 99 | 1020.0 |
| 20260903025402 | 58 | 341 | 1.0 | 2.0 | 0.00 | 0.00 | 0.00 | 99 | 1020.0 |
| 20260903024902 | 58 | 331 | 1.0 | 1.0 | 0.00 | 0.00 | 0.00 | 99 | 1020.3 |
| 20260903024402 | 58 | 327 | 1.0 | 1.0 | 0.00 | 0.00 | 0.00 | 98 | 1020.3 |
| 20260903023902 | 58 | 343 | 2.0 | 2.0 | 0.00 | 0.00 | 0.00 | 98 | 1020.3 |
| 20260903023402 | 58 | 352 | 2.0 | 3.0 | 0.00 | 0.00 | 0.00 | 99 | 1020.0 |
| 20260903022902 | 58 | 344 | 1.0 | 2.0 | 0.00 | 0.00 | 0.00 | 99 | 1020.0 |
| 20260903022402 | 57 | 348 | 3.0 | 6.0 | 0.00 | 0.00 | 0.00 | 99 | 1020.0 |
| 20260903021902 | 56 | 298 | 11.0 | 21.0 | 0.00 | 0.00 | 0.00 | 99 | 1020.0 |
| 20260903021402 | 53 | 322 | 4.0 | 6.0 | 0.00 | 0.00 | 0.00 | 99 | 1020.0 |
| 20260903020902 | 53 | 329 | 3.0 | 3.0 | 0.00 | 0.00 | 0.00 | 99 | 1020.0 |
| 20260903020402 | 53 | 327 | 0.0 | 0.0 | 0.00 | 0.00 | 0.00 | 99 | 1020.0 |
| 20260903015902 | 53 | 327 | 0.0 | 0.0 | 0.00 | 0.00 | 0.00 | 99 | 1020.0 |
| 20260903015402 | 53 | 328 | 0.0 | 0.0 | 0.00 | 0.00 | 0.00 | 99 | 1020.0 |
| 20260903014902 | 53 | 328 | 0.0 | 0.0 | 0.00 | 0.00 | 0.00 | 99 | 1020.0 |
| 20260903014402 | 53 | 328 | 0.0 | 0.0 | 0.00 | 0.00 | 0.00 | 99 | 1020.0 |
| 20260903013902 | 53 | 327 | 0.0 | 0.0 | 0.00 | 0.00 | 0.00 | 99 | 1020.0 |
| 20260903013402 | 53 | 328 | 0.0 | 0.0 | 0.00 | 0.00 | 0.00 | 99 | 1020.0 |
| 20260903012902 | 53 | 328 | 0.0 | 0.0 | 0.00 | 0.00 | 0.00 | 99 | 1020.0 |
| 20260903012402 | 53 | 328 | 0.0 | 0.0 | 0.00 | 0.00 | 0.00 | 99 | 1020.0 |
| 20260903011902 | 53 | 328 | 0.0 | 0.0 | 0.00 | 0.00 | 0.00 | 99 | 1020.0 |
| 20260903011402 | 53 | 328 | 0.0 | 0.0 | 0.00 | 0.00 | 0.00 | 99 | 1020.0 |
| 20260903010902 | 53 | 325 | 0.0 | 0.0 | 0.00 | 0.00 | 0.00 | 99 | 1020.0 |
| 20260903010402 | 53 | 325 | 0.0 | 0.0 | 0.00 | 0.00 | 0.00 | 99 | 1020.0 |
| 20260903005902 | 53 | 325 | 0.0 | 0.0 | 0.00 | 0.00 | 0.00 | 99 | 1020.0 |
| 20260903005402 | 53 | 325 | 0.0 | 0.0 | 0.00 | 0.00 | 0.00 | 99 | 1020.0 |
| 20260903004902 | 53 | 325 | 0.0 | 0.0 | 0.00 | 0.00 | 0.00 | 99 | 1020.0 |
| 20260903004402 | 53 | 325 | 0.0 | 0.0 | 0.00 | 0.00 | 0.00 | 99 | 1020.0 |
| 20260903003902 | 53 | 325 | 0.0 | 0.0 | 0.00 | 0.00 | 0.00 | 99 | 1020.0 |
| 20260903003402 | 53 | 324 | 0.0 | 0.0 | 0.00 | 0.00 | 0.00 | 99 | 1020.0 |
| 20260903002902 | 53 | 325 | 0.0 | 0.0 | 0.00 | 0.00 | 0.00 | 99 | 1020.0 |
| 20260903002402 | 53 | 325 | 0.0 | 0.0 | 0.00 | 0.00 | 0.00 | 99 | 1020.0 |
| 20260903001902 | 53 | 325 | 0.0 | 0.0 | 0.00 | 0.00 | 0.00 | 99 | 1020.0 |
| 20260903001402 | 53 | 325 | 0.0 | 0.0 | 0.00 | 0.00 | 0.00 | 99 | 1020.0 |
| 20260903000902 | 54 | 324 | 0.0 | 0.0 | 0.00 | 0.00 | 0.00 | 99 | 1020.0 |
| 20260903000402 | 54 | 324 | 0.0 | 0.0 | 0.00 | 0.00 | 0.00 | 99 | 1020.0 |
| 20260902235902 | 53 | 325 | 0.0 | 0.0 | 0.00 | 0.00 | 0.00 | 99 | 1020.0 |
| 20260902235402 | 54 | 325 | 0.0 | 0.0 | 0.00 | 0.00 | 0.00 | 99 | 1020.0 |
| 20260902234902 | 54 | 324 | 0.0 | 0.0 | 0.00 | 0.00 | 0.00 | 99 | 1020.0 |
| 20260902234402 | 54 | 323 | 0.0 | 0.0 | 0.00 | 0.00 | 0.00 | 99 | 1020.0 |
| 20260902233902 | 54 | 324 | 0.0 | 0.0 | 0.00 | 0.00 | 0.00 | 99 | 1020.0 |
| 20260902233402 | 54 | 324 | 0.0 | 0.0 | 0.00 | 0.00 | 0.00 | 99 | 1020.0 |
| 20260902232902 | 54 | 324 | 0.0 | 0.0 | 0.00 | 0.00 | 0.00 | 99 | 1020.0 |
| 20260902232402 | 54 | 324 | 0.0 | 0.0 | 0.00 | 0.00 | 0.00 | 99 | 1020.3 |
| 20260902231902 | 53 | 321 | 0.0 | 0.0 | 0.00 | 0.00 | 0.00 | 99 | 1020.3 |
| 20260902231402 | 53 | 313 | 0.0 | 0.0 | 0.00 | 0.00 | 0.00 | 99 | 1020.3 |
| 20260902230902 | 53 | 333 | 0.0 | 0.0 | 0.00 | 0.00 | 0.00 | 99 | 1020.3 |
| 20260902230402 | 53 | 335 | 0.0 | 0.0 | 0.00 | 0.00 | 0.00 | 99 | 1020.3 |
| 20260902225902 | 53 | 332 | 0.0 | 0.0 | 0.00 | 0.00 | 0.00 | 99 | 1020.3 |
| 20260902225402 | 53 | 333 | 0.0 | 0.0 | 0.00 | 0.00 | 0.00 | 99 | 1020.3 |
| 20260902224902 | 52 | 332 | 0.0 | 0.0 | 0.00 | 0.00 | 0.00 | 99 | 1020.3 |
| 20260902224402 | 52 | 332 | 0.0 | 0.0 | 0.00 | 0.00 | 0.00 | 99 | 1020.3 |
| 20260902223902 | 52 | 333 | 0.0 | 0.0 | 0.00 | 0.00 | 0.00 | 99 | 1020.3 |
| 20260902223402 | 53 | 333 | 0.0 | 0.0 | 0.00 | 0.00 | 0.00 | 99 | 1020.3 |
| 20260902222902 | 52 | 332 | 0.0 | 0.0 | 0.00 | 0.00 | 0.00 | 99 | 1020.3 |
| 20260902222402 | 52 | 332 | 0.0 | 0.0 | 0.00 | 0.00 | 0.00 | 99 | 1020.3 |
| 20260902221902 | 52 | 332 | 0.0 | 0.0 | 0.00 | 0.00 | 0.00 | 99 | 1020.3 |
| 20260902221402 | 52 | 332 | 0.0 | 0.0 | 0.00 | 0.00 | 0.00 | 99 | 1020.0 |
| 20260902220902 | 53 | 332 | 0.0 | 0.0 | 0.00 | 0.00 | 0.00 | 99 | 1020.0 |
| 20260902220402 | 53 | 332 | 0.0 | 0.0 | 0.00 | 0.00 | 0.00 | 99 | 1020.0 |
| 20260902215902 | 53 | 332 | 0.0 | 0.0 | 0.00 | 0.00 | 0.00 | 99 | 1020.3 |
| 20260902215402 | 53 | 332 | 0.0 | 0.0 | 0.00 | 0.00 | 0.00 | 99 | 1020.3 |
| 20260902214902 | 53 | 332 | 0.0 | 0.0 | 0.00 | 0.00 | 0.00 | 99 | 1020.3 |
| 20260902214402 | 53 | 332 | 0.0 | 0.0 | 0.00 | 0.00 | 0.00 | 99 | 1020.3 |
| 20260902213902 | 53 | 332 | 0.0 | 0.0 | 0.00 | 0.00 | 0.00 | 99 | 1020.3 |
| 20260902213402 | 53 | 332 | 0.0 | 0.0 | 0.00 | 0.00 | 0.00 | 99 | 1020.3 |
| 20260902212902 | 53 | 332 | 0.0 | 0.0 | 0.00 | 0.00 | 0.00 | 99 | 1020.3 |
| 20260902212402 | 53 | 332 | 0.0 | 0.0 | 0.00 | 0.00 | 0.00 | 99 | 1020.3 |
| 20260902211902 | 53 | 332 | 0.0 | 0.0 | 0.00 | 0.00 | 0.00 | 99 | 1020.3 |
| 20260902211402 | 53 | 332 | 0.0 | 0.0 | 0.00 | 0.00 | 0.00 | 99 | 1020.3 |
| 20260902210902 | 53 | 332 | 0.0 | 0.0 | 0.00 | 0.00 | 0.00 | 99 | 1020.3 |
| 20260902210402 | 54 | 332 | 0.0 | 0.0 | 0.00 | 0.00 | 0.00 | 99 | 1020.3 |
| 20260902205902 | 54 | 332 | 0.0 | 0.0 | 0.00 | 0.00 | 0.00 | 99 | 1020.3 |
| 20260902205402 | 54 | 330 | 0.0 | 0.0 | 0.00 | 0.00 | 0.00 | 99 | 1020.3 |
| 20260902204902 | 54 | 330 | 0.0 | 0.0 | 0.00 | 0.00 | 0.00 | 99 | 1020.3 |
| 20260902204402 | 55 | 331 | 0.0 | 0.0 | 0.00 | 0.00 | 0.00 | 99 | 1020.3 |
| 20260902203902 | 55 | 330 | 0.0 | 0.0 | 0.00 | 0.00 | 0.00 | 99 | 1020.3 |
| 20260902203402 | 55 | 329 | 0.0 | 0.0 | 0.00 | 0.00 | 0.00 | 99 | 1020.0 |
| 20260902202902 | 55 | 330 | 0.0 | 0.0 | 0.00 | 0.00 | 0.00 | 99 | 1020.0 |
| 20260902202402 | 55 | 330 | 0.0 | 0.0 | 0.00 | 0.00 | 0.00 | 99 | 1020.0 |
| 20260902201902 | 55 | 330 | 0.0 | 0.0 | 0.00 | 0.00 | 0.00 | 99 | 1020.0 |
| 20260902201402 | 55 | 331 | 0.0 | 0.0 | 0.00 | 0.00 | 0.00 | 99 | 1020.0 |
| 20260902200902 | 55 | 331 | 0.0 | 0.0 | 0.00 | 0.00 | 0.00 | 99 | 1020.0 |
| 20260902200402 | 56 | 328 | 0.0 | 0.0 | 0.00 | 0.00 | 0.00 | 99 | 1020.0 |
| 20260902195902 | 56 | 330 | 0.0 | 0.0 | 0.00 | 0.00 | 0.00 | 99 | 1020.0 |
| 20260902195402 | 56 | 329 | 0.0 | 0.0 | 0.00 | 0.00 | 0.00 | 99 | 1020.0 |
| 20260902194902 | 56 | 327 | 0.0 | 0.0 | 0.00 | 0.00 | 0.00 | 99 | 1020.3 |
| 20260902194402 | 57 | 329 | 0.0 | 0.0 | 0.00 | 0.00 | 0.00 | 99 | 1020.3 |
| 20260902193902 | 57 | 327 | 0.0 | 0.0 | 0.00 | 0.00 | 0.00 | 99 | 1020.3 |
| 20260902193402 | 57 | 324 | 0.0 | 0.0 | 0.00 | 0.00 | 0.00 | 99 | 1020.3 |
| 20260902192902 | 57 | 324 | 0.0 | 0.0 | 0.00 | 0.00 | 0.00 | 99 | 1020.3 |
| 20260902192402 | 57 | 324 | 0.0 | 0.0 | 0.00 | 0.00 | 0.00 | 99 | 1020.3 |
| 20260902191902 | 57 | 321 | 0.0 | 0.0 | 0.00 | 0.00 | 0.00 | 99 | 1020.3 |
| 20260902191403 | 57 | 328 | 1.0 | 1.0 | 0.00 | 0.00 | 0.00 | 99 | 1020.3 |
| 20260902190902 | 58 | 329 | 0.0 | 0.0 | 0.00 | 0.00 | 0.00 | 99 | 1020.3 |
| 20260902190402 | 58 | 329 | 0.0 | 0.0 | 0.00 | 0.00 | 0.00 | 99 | 1020.3 |
| 20260902185902 | 58 | 329 | 0.0 | 0.0 | 0.00 | 0.00 | 0.00 | 99 | 1020.3 |
| 20260902185402 | 58 | 329 | 0.0 | 0.0 | 0.00 | 0.00 | 0.00 | 99 | 1020.3 |
| 20260902184902 | 58 | 329 | 0.0 | 0.0 | 0.00 | 0.00 | 0.00 | 99 | 1020.3 |
| 20260902184402 | 58 | 329 | 0.0 | 0.0 | 0.00 | 0.00 | 0.00 | 99 | 1020.3 |
| 20260902183902 | 58 | 328 | 0.0 | 0.0 | 0.00 | 0.00 | 0.00 | 99 | 1020.3 |
| 20260902183402 | 59 | 329 | 0.0 | 0.0 | 0.00 | 0.00 | 0.00 | 99 | 1020.3 |
| 20260902182902 | 59 | 325 | 0.0 | 0.0 | 0.00 | 0.00 | 0.00 | 98 | 1020.3 |
| 20260902182402 | 60 | 325 | 0.0 | 0.0 | 0.00 | 0.00 | 0.00 | 98 | 1020.0 |
| 20260902181902 | 60 | 325 | 0.0 | 0.0 | 0.00 | 0.00 | 0.00 | 97 | 1020.0 |
| 20260902181402 | 60 | 325 | 0.0 | 0.0 | 0.00 | 0.00 | 0.00 | 97 | 1020.0 |
| 20260902180902 | 60 | 325 | 0.0 | 0.0 | 0.00 | 0.00 | 0.00 | 97 | 1020.0 |
| 20260902180402 | 60 | 325 | 0.0 | 0.0 | 0.00 | 0.00 | 0.00 | 96 | 1020.0 |
| 20260902175902 | 61 | 325 | 0.0 | 0.0 | 0.00 | 0.00 | 0.00 | 96 | 1020.0 |
| 20260902175402 | 61 | 325 | 0.0 | 0.0 | 0.00 | 0.00 | 0.00 | 95 | 1020.0 |
| 20260902174902 | 62 | 324 | 0.0 | 0.0 | 0.00 | 0.00 | 0.00 | 95 | 1020.0 |
| 20260902174402 | 62 | 325 | 0.0 | 0.0 | 0.00 | 0.00 | 0.00 | 95 | 1020.0 |
| 20260902173902 | 62 | 324 | 0.0 | 0.0 | 0.00 | 0.00 | 0.00 | 94 | 1020.0 |
| 20260902173402 | 62 | 324 | 0.0 | 0.0 | 0.00 | 0.00 | 0.00 | 93 | 1020.0 |
| 20260902172902 | 63 | 324 | 0.0 | 0.0 | 0.00 | 0.00 | 0.00 | 92 | 1020.0 |
| 20260902172402 | 63 | 325 | 0.0 | 0.0 | 0.00 | 0.00 | 0.00 | 90 | 1020.0 |
| 20260902171902 | 64 | 324 | 0.0 | 0.0 | 0.00 | 0.00 | 0.00 | 89 | 1020.0 |
| 20260902171402 | 64 | 324 | 0.0 | 0.0 | 0.00 | 0.00 | 0.00 | 90 | 1020.0 |
| 20260902170902 | 65 | 324 | 0.0 | 0.0 | 0.00 | 0.00 | 0.00 | 87 | 1020.0 |
| 20260902170402 | 65 | 324 | 0.0 | 0.0 | 0.00 | 0.00 | 0.00 | 86 | 1020.0 |
| 20260902165902 | 66 | 325 | 0.0 | 0.0 | 0.00 | 0.00 | 0.00 | 83 | 1020.0 |
| 20260902165402 | 67 | 325 | 0.0 | 0.0 | 0.00 | 0.00 | 0.00 | 79 | 1020.0 |
| 20260902164902 | 67 | 323 | 0.0 | 0.0 | 0.00 | 0.00 | 0.00 | 81 | 1020.0 |
| 20260902164402 | 68 | 323 | 0.0 | 0.0 | 0.00 | 0.00 | 0.00 | 80 | 1020.0 |
| 20260902163902 | 69 | 323 | 0.0 | 0.0 | 0.00 | 0.00 | 0.00 | 80 | 1020.0 |
| 20260902163402 | 69 | 323 | 0.0 | 0.0 | 0.00 | 0.00 | 0.00 | 77 | 1020.0 |
| 20260902162902 | 70 | 323 | 0.0 | 0.0 | 0.00 | 0.00 | 0.00 | 76 | 1020.0 |
| 20260902162402 | 71 | 323 | 0.0 | 0.0 | 0.00 | 0.00 | 0.00 | 73 | 1020.0 |
| 20260902161902 | 71 | 323 | 0.0 | 0.0 | 0.00 | 0.00 | 0.00 | 69 | 1020.0 |
| 20260902161402 | 71 | 322 | 0.0 | 0.0 | 0.00 | 0.00 | 0.00 | 69 | 1020.0 |
| 20260902160902 | 71 | 316 | 1.0 | 1.0 | 0.00 | 0.00 | 0.00 | 67 | 1020.0 |
| 20260902160402 | 73 | 332 | 0.0 | 0.0 | 0.00 | 0.00 | 0.00 | 60 | 1020.0 |
| 20260902155902 | 73 | 327 | 1.0 | 1.0 | 0.00 | 0.00 | 0.00 | 57 | 1020.0 |
| 20260902155402 | 73 | 339 | 4.0 | 4.0 | 0.00 | 0.00 | 0.00 | 56 | 1020.0 |
| 20260902154902 | 74 | 333 | 4.0 | 6.0 | 0.00 | 0.00 | 0.00 | 56 | 1020.0 |
| 20260902154402 | 74 | 281 | 3.0 | 4.0 | 0.00 | 0.00 | 0.00 | 56 | 1020.0 |
| 20260902153902 | 76 | 347 | 1.0 | 3.0 | 0.00 | 0.00 | 0.00 | 53 | 1020.0 |
| 20260902153402 | 76 | 326 | 4.0 | 6.0 | 0.00 | 0.00 | 0.00 | 52 | 1020.0 |
| 20260902152902 | 76 | 347 | 3.0 | 3.0 | 0.00 | 0.00 | 0.00 | 53 | 1020.0 |
| 20260902152402 | 75 | 321 | 2.0 | 6.0 | 0.00 | 0.00 | 0.00 | 53 | 1020.0 |
| 20260902151902 | 76 | 320 | 4.0 | 4.0 | 0.00 | 0.00 | 0.00 | 54 | 1020.0 |
| 20260902151402 | 76 | 340 | 4.0 | 4.0 | 0.00 | 0.00 | 0.00 | 53 | 1020.0 |
| 20260902150902 | 76 | 312 | 3.0 | 7.0 | 0.00 | 0.00 | 0.00 | 52 | 1020.0 |
| 20260902150402 | 76 | 314 | 4.0 | 6.0 | 0.00 | 0.00 | 0.00 | 51 | 1020.0 |
| 20260902145902 | 76 | 298 | 6.0 | 6.0 | 0.00 | 0.00 | 0.00 | 52 | 1020.0 |
| 20260902145402 | 76 | 317 | 7.0 | 7.0 | 0.00 | 0.00 | 0.00 | 52 | 1020.0 |
| 20260902144902 | 75 | 307 | 4.0 | 7.0 | 0.00 | 0.00 | 0.00 | 55 | 1020.0 |
| 20260902144402 | 76 | 329 | 6.0 | 9.0 | 0.00 | 0.00 | 0.00 | 53 | 1020.0 |
| 20260902143902 | 76 | 354 | 3.0 | 3.0 | 0.00 | 0.00 | 0.00 | 52 | 1020.0 |
| 20260902143402 | 76 | 330 | 3.0 | 6.0 | 0.00 | 0.00 | 0.00 | 56 | 1020.0 |
| 20260902142902 | 76 | 309 | 7.0 | 10.0 | 0.00 | 0.00 | 0.00 | 52 | 1020.0 |
| 20260902142402 | 76 | 319 | 2.0 | 3.0 | 0.00 | 0.00 | 0.00 | 53 | 1020.0 |
| 20260902141902 | 76 | 312 | 3.0 | 4.0 | 0.00 | 0.00 | 0.00 | 53 | 1020.0 |
| 20260902141402 | 74 | 323 | 2.0 | 3.0 | 0.00 | 0.00 | 0.00 | 57 | 1020.0 |
| 20260902140902 | 75 | 328 | 5.0 | 6.0 | 0.00 | 0.00 | 0.00 | 55 | 1020.0 |
| 20260902140402 | 74 | 339 | 7.0 | 9.0 | 0.00 | 0.00 | 0.00 | 56 | 1020.0 |
| 20260902135902 | 76 | 317 | 3.0 | 4.0 | 0.00 | 0.00 | 0.00 | 56 | 1020.3 |
| 20260902135402 | 76 | 301 | 7.0 | 12.0 | 0.00 | 0.00 | 0.00 | 54 | 1020.3 |
| 20260902134902 | 76 | 330 | 5.0 | 6.0 | 0.00 | 0.00 | 0.00 | 57 | 1020.3 |
| 20260902134402 | 76 | 303 | 3.0 | 5.0 | 0.00 | 0.00 | 0.00 | 57 | 1020.3 |
| 20260902133902 | 76 | 345 | 6.0 | 7.0 | 0.00 | 0.00 | 0.00 | 54 | 1020.3 |
| 20260902133402 | 76 | 330 | 6.0 | 9.0 | 0.00 | 0.00 | 0.00 | 53 | 1020.3 |
| 20260902132902 | 76 | 354 | 6.0 | 8.0 | 0.00 | 0.00 | 0.00 | 54 | 1020.3 |
| 20260902132402 | 75 | 327 | 3.0 | 4.0 | 0.00 | 0.00 | 0.00 | 56 | 1020.7 |
| 20260902131902 | 74 | 305 | 5.0 | 8.0 | 0.00 | 0.00 | 0.00 | 55 | 1020.7 |
| 20260902131402 | 76 | 343 | 2.0 | 3.0 | 0.00 | 0.00 | 0.00 | 58 | 1020.7 |
| 20260902130902 | 74 | 337 | 4.0 | 6.0 | 0.00 | 0.00 | 0.00 | 60 | 1020.7 |
| 20260902130402 | 72 | 293 | 4.0 | 5.0 | 0.00 | 0.00 | 0.00 | 61 | 1020.7 |
| 20260902125902 | 72 | 348 | 2.0 | 3.0 | 0.00 | 0.00 | 0.00 | 62 | 1020.7 |
| 20260902125402 | 72 | 323 | 4.0 | 5.0 | 0.00 | 0.00 | 0.00 | 61 | 1020.7 |
| 20260902124902 | 72 | 306 | 6.0 | 8.0 | 0.00 | 0.00 | 0.00 | 60 | 1020.7 |
| 20260902124402 | 73 | 337 | 3.0 | 5.0 | 0.00 | 0.00 | 0.00 | 62 | 1020.7 |
| 20260902123902 | 74 | 325 | 4.0 | 5.0 | 0.00 | 0.00 | 0.00 | 59 | 1020.7 |
| 20260902123402 | 74 | 307 | 5.0 | 5.0 | 0.00 | 0.00 | 0.00 | 59 | 1020.7 |
| 20260902122902 | 73 | 334 | 4.0 | 6.0 | 0.00 | 0.00 | 0.00 | 61 | 1020.7 |
| 20260902122402 | 73 | 322 | 6.0 | 8.0 | 0.00 | 0.00 | 0.00 | 61 | 1021.0 |
| 20260902121902 | 73 | 323 | 5.0 | 5.0 | 0.00 | 0.00 | 0.00 | 59 | 1021.0 |
| 20260902121403 | 73 | 332 | 6.0 | 6.0 | 0.00 | 0.00 | 0.00 | 58 | 1021.0 |
| 20260902120902 | 74 | 305 | 4.0 | 5.0 | 0.00 | 0.00 | 0.00 | 57 | 1021.0 |
| 20260902120402 | 75 | 321 | 2.0 | 5.0 | 0.00 | 0.00 | 0.00 | 56 | 1021.0 |
| 20260902115902 | 77 | 316 | 2.0 | 2.0 | 0.00 | 0.00 | 0.00 | 50 | 1021.0 |
| 20260902115402 | 77 | 342 | 3.0 | 3.0 | 0.00 | 0.00 | 0.00 | 52 | 1021.0 |
| 20260902114902 | 76 | 343 | 3.0 | 5.0 | 0.00 | 0.00 | 0.00 | 55 | 1021.0 |
| 20260902114402 | 76 | 332 | 4.0 | 6.0 | 0.00 | 0.00 | 0.00 | 55 | 1021.0 |
| 20260902113902 | 76 | 312 | 5.0 | 7.0 | 0.00 | 0.00 | 0.00 | 53 | 1021.0 |
| 20260902113402 | 75 | 308 | 4.0 | 8.0 | 0.00 | 0.00 | 0.00 | 54 | 1021.0 |
| 20260902112902 | 74 | 303 | 4.0 | 5.0 | 0.00 | 0.00 | 0.00 | 57 | 1021.0 |
| 20260902112402 | 73 | 341 | 9.0 | 10.0 | 0.00 | 0.00 | 0.00 | 56 | 1021.0 |
| 20260902111902 | 73 | 289 | 4.0 | 5.0 | 0.00 | 0.00 | 0.00 | 58 | 1021.0 |
| 20260902111402 | 73 | 327 | 1.0 | 1.0 | 0.00 | 0.00 | 0.00 | 60 | 1021.0 |
| 20260902110902 | 73 | 308 | 5.0 | 8.0 | 0.00 | 0.00 | 0.00 | 58 | 1021.0 |
| 20260902110402 | 73 | 312 | 2.0 | 3.0 | 0.00 | 0.00 | 0.00 | 57 | 1021.0 |
| 20260902105902 | 73 | 301 | 3.0 | 6.0 | 0.00 | 0.00 | 0.00 | 58 | 1021.7 |
| 20260902105402 | 74 | 321 | 4.0 | 4.0 | 0.00 | 0.00 | 0.00 | 57 | 1021.7 |
| 20260902104902 | 73 | 276 | 4.0 | 5.0 | 0.00 | 0.00 | 0.00 | 57 | 1021.7 |
| 20260902104402 | 73 | 271 | 4.0 | 6.0 | 0.00 | 0.00 | 0.00 | 57 | 1021.7 |
| 20260902103902 | 73 | 319 | 7.0 | 9.0 | 0.00 | 0.00 | 0.00 | 56 | 1021.7 |
| 20260902103402 | 73 | 278 | 2.0 | 4.0 | 0.00 | 0.00 | 0.00 | 56 | 1021.7 |
| 20260902102902 | 73 | 304 | 5.0 | 6.0 | 0.00 | 0.00 | 0.00 | 56 | 1021.7 |
| 20260902102402 | 73 | 319 | 4.0 | 7.0 | 0.00 | 0.00 | 0.00 | 60 | 1021.7 |
| 20260902101902 | 73 | 335 | 6.0 | 8.0 | 0.00 | 0.00 | 0.00 | 55 | 1021.7 |
| 20260902101402 | 74 | 314 | 5.0 | 6.0 | 0.00 | 0.00 | 0.00 | 57 | 1021.7 |
| 20260902100902 | 74 | 292 | 7.0 | 9.0 | 0.00 | 0.00 | 0.00 | 58 | 1021.7 |
| 20260902100402 | 73 | 317 | 4.0 | 4.0 | 0.00 | 0.00 | 0.00 | 58 | 1021.7 |
| 20260902095902 | 73 | 200 | 1.0 | 1.0 | 0.00 | 0.00 | 0.00 | 57 | 1022.0 |
| 20260902095402 | 73 | 310 | 6.0 | 10.0 | 0.00 | 0.00 | 0.00 | 60 | 1022.0 |
| 20260902094902 | 73 | 296 | 4.0 | 5.0 | 0.00 | 0.00 | 0.00 | 58 | 1021.7 |
| 20260902094402 | 73 | 236 | 2.0 | 2.0 | 0.00 | 0.00 | 0.00 | 57 | 1021.7 |
| 20260902093902 | 73 | 296 | 5.0 | 6.0 | 0.00 | 0.00 | 0.00 | 57 | 1021.7 |
| 20260902093402 | 73 | 311 | 4.0 | 6.0 | 0.00 | 0.00 | 0.00 | 58 | 1021.7 |
| 20260902092902 | 73 | 333 | 7.0 | 8.0 | 0.00 | 0.00 | 0.00 | 57 | 1021.7 |
| 20260902092402 | 73 | 349 | 7.0 | 9.0 | 0.00 | 0.00 | 0.00 | 58 | 1021.7 |
| 20260902091902 | 74 | 272 | 8.0 | 12.0 | 0.00 | 0.00 | 0.00 | 57 | 1021.7 |
| 20260902091402 | 74 | 304 | 8.0 | 10.0 | 0.00 | 0.00 | 0.00 | 55 | 1022.0 |
| 20260902090902 | 75 | 327 | 4.0 | 6.0 | 0.00 | 0.00 | 0.00 | 56 | 1022.0 |
| 20260902090402 | 74 | 327 | 5.0 | 7.0 | 0.00 | 0.00 | 0.00 | 56 | 1022.0 |
| 20260902085902 | 74 | 319 | 2.0 | 2.0 | 0.00 | 0.00 | 0.00 | 57 | 1022.0 |
| 20260902085402 | 74 | 313 | 1.0 | 1.0 | 0.00 | 0.00 | 0.00 | 57 | 1022.0 |
| 20260902084902 | 74 | 325 | 5.0 | 6.0 | 0.00 | 0.00 | 0.00 | 56 | 1022.0 |
| 20260902084402 | 73 | 238 | 4.0 | 6.0 | 0.00 | 0.00 | 0.00 | 58 | 1022.0 |
| 20260902083902 | 73 | 313 | 4.0 | 5.0 | 0.00 | 0.00 | 0.00 | 57 | 1022.0 |
| 20260902083402 | 74 | 312 | 1.0 | 1.0 | 0.00 | 0.00 | 0.00 | 58 | 1022.0 |
| 20260902082902 | 73 | 295 | 7.0 | 8.0 | 0.00 | 0.00 | 0.00 | 58 | 1022.0 |
| 20260902082402 | 73 | 336 | 7.0 | 10.0 | 0.00 | 0.00 | 0.00 | 59 | 1022.0 |
| 20260902081902 | 74 | 295 | 6.0 | 7.0 | 0.00 | 0.00 | 0.00 | 61 | 1022.0 |
| 20260902081402 | 73 | 286 | 4.0 | 6.0 | 0.00 | 0.00 | 0.00 | 58 | 1022.4 |
| 20260902080902 | 72 | 343 | 4.0 | 5.0 | 0.00 | 0.00 | 0.00 | 60 | 1022.4 |
| 20260902080402 | 71 | 311 | 5.0 | 9.0 | 0.00 | 0.00 | 0.00 | 61 | 1022.4 |
| 20260902075902 | 71 | 243 | 5.0 | 10.0 | 0.00 | 0.00 | 0.00 | 62 | 1022.0 |
| 20260902075402 | 71 | 273 | 5.0 | 8.0 | 0.00 | 0.00 | 0.00 | 62 | 1022.0 |
| 20260902074902 | 71 | 287 | 4.0 | 6.0 | 0.00 | 0.00 | 0.00 | 62 | 1022.0 |
| 20260902074402 | 71 | 323 | 1.0 | 2.0 | 0.00 | 0.00 | 0.00 | 63 | 1022.0 |
| 20260902073902 | 70 | 299 | 3.0 | 3.0 | 0.00 | 0.00 | 0.00 | 65 | 1022.0 |
| 20260902073402 | 70 | 315 | 5.0 | 10.0 | 0.00 | 0.00 | 0.00 | 62 | 1022.0 |
| 20260902072902 | 70 | 303 | 3.0 | 4.0 | 0.00 | 0.00 | 0.00 | 65 | 1022.0 |
| 20260902072402 | 70 | 343 | 2.0 | 4.0 | 0.00 | 0.00 | 0.00 | 66 | 1022.0 |
| 20260902071902 | 69 | 322 | 3.0 | 5.0 | 0.00 | 0.00 | 0.00 | 66 | 1022.0 |
| 20260902071402 | 69 | 324 | 2.0 | 2.0 | 0.00 | 0.00 | 0.00 | 68 | 1021.7 |
| 20260902070902 | 69 | 350 | 4.0 | 6.0 | 0.00 | 0.00 | 0.00 | 70 | 1021.7 |
| 20260902070402 | 68 | 307 | 1.0 | 1.0 | 0.00 | 0.00 | 0.00 | 69 | 1021.7 |
| 20260902065902 | 67 | 325 | 3.0 | 4.0 | 0.00 | 0.00 | 0.00 | 70 | 1021.7 |
| 20260902065402 | 67 | 294 | 2.0 | 2.0 | 0.00 | 0.00 | 0.00 | 72 | 1021.7 |
| 20260902064902 | 67 | 320 | 1.0 | 1.0 | 0.00 | 0.00 | 0.00 | 75 | 1021.7 |
| 20260902064402 | 67 | 287 | 1.0 | 1.0 | 0.00 | 0.00 | 0.00 | 76 | 1021.7 |
| 20260902063902 | 65 | 342 | 0.0 | 0.0 | 0.00 | 0.00 | 0.00 | 75 | 1021.7 |
| 20260902063402 | 65 | 340 | 0.0 | 0.0 | 0.00 | 0.00 | 0.00 | 80 | 1021.7 |
| 20260902062902 | 64 | 340 | 0.0 | 1.0 | 0.00 | 0.00 | 0.00 | 81 | 1021.7 |
| 20260902062402 | 63 | 337 | 0.0 | 0.0 | 0.00 | 0.00 | 0.00 | 88 | 1021.7 |
| 20260902061902 | 62 | 340 | 0.0 | 0.0 | 0.00 | 0.00 | 0.00 | 88 | 1021.7 |
| 20260902061402 | 61 | 338 | 0.0 | 0.0 | 0.00 | 0.00 | 0.00 | 94 | 1021.7 |
| 20260902060902 | 59 | 340 | 0.0 | 0.0 | 0.00 | 0.00 | 0.00 | 97 | 1021.7 |
| 20260902060402 | 58 | 340 | 0.0 | 0.0 | 0.00 | 0.00 | 0.00 | 99 | 1021.7 |
| 20260902055902 | 58 | 336 | 0.0 | 0.0 | 0.00 | 0.00 | 0.00 | 99 | 1021.0 |
| 20260902055402 | 57 | 335 | 0.0 | 0.0 | 0.00 | 0.00 | 0.00 | 99 | 1021.0 |
| 20260902054902 | 56 | 333 | 0.0 | 0.0 | 0.00 | 0.00 | 0.00 | 99 | 1021.0 |
| 20260902054402 | 55 | 337 | 0.0 | 0.0 | 0.00 | 0.00 | 0.00 | 99 | 1021.0 |
| 20260902053902 | 54 | 12 | 2.0 | 2.0 | 0.00 | 0.00 | 0.00 | 99 | 1021.0 |
| 20260902053402 | 53 | 327 | 0.0 | 0.0 | 0.00 | 0.00 | 0.00 | 99 | 1021.0 |
| 20260902052902 | 52 | 326 | 0.0 | 0.0 | 0.00 | 0.00 | 0.00 | 99 | 1021.0 |
| 20260902052402 | 51 | 325 | 0.0 | 0.0 | 0.00 | 0.00 | 0.00 | 99 | 1021.0 |
| 20260902051902 | 51 | 317 | 1.0 | 1.0 | 0.00 | 0.00 | 0.00 | 99 | 1021.0 |
| 20260902051402 | 51 | 326 | 0.0 | 1.0 | 0.00 | 0.00 | 0.00 | 99 | 1021.7 |
| 20260902050902 | 50 | 326 | 0.0 | 0.0 | 0.00 | 0.00 | 0.00 | 99 | 1021.7 |
| 20260902050402 | 49 | 308 | 0.0 | 1.0 | 0.00 | 0.00 | 0.00 | 99 | 1021.7 |
| 20260902045902 | 49 | 319 | 0.0 | 0.0 | 0.00 | 0.00 | 0.00 | 99 | 1021.0 |
| 20260902045402 | 48 | 287 | 2.0 | 2.0 | 0.00 | 0.00 | 0.00 | 99 | 1021.0 |
| 20260902044902 | 47 | 327 | 0.0 | 0.0 | 0.00 | 0.00 | 0.00 | 99 | 1021.0 |
| 20260902044402 | 47 | 327 | 0.0 | 0.0 | 0.00 | 0.00 | 0.00 | 99 | 1021.0 |